Weather in Lausanne

Switzerland     46°31′16″N   6°37′23″E
В апреле 2022 года жителям России запретили посещать сайт meteo.paraplan.net по решению Генеральной прокуратуры. Аудитория сайта уменьшилась в 10 раз. Владельцы сайта не видят смысла в поддержке погодного сервера в таких условиях. Сайт будет закрыт в октябре.
temp.,
°C
wind,
m/s
gust,
m/s
humid.,
%
clouds,
%
prec.,
mm/h
press.,
hPa
HPBL,
m
25 september, sun
sun2523:00+12n238099 0.6 1013183
02:00+12nw2282100 1.4 101386
05:00+12n1184100 0.6 1012166
08:00+12ne2288100 4.3 1013211
11:00+13ene1178100 1.3 1014292
14:00+14sw117198 2.8 1013579
17:00+14w2276100 1.6 1013369
20:00+13nw117888 3.3 1014196
26 september, mon
mon2623:00+11wnw228143 0.9 1015160
02:00+10w238425 1.3 1014216
05:00+9w338547 0.1 1013243
08:00+10w228497 0.1 1013225
11:00+13wsw236873 0.3 1012730
14:00+15sw5657100 0.3 10101478
17:00+16wsw6852100 0.0 10081434
20:00+14sw71161100 0.1 10081252
27 september, tue
tue2723:00+12sw71376100 1.1 10081227
02:00+11sw81387100 6.1 10081212
05:00+11wsw798378 2.1 1009637
08:00+9wsw4582100 2.8 1010422
11:00+12wsw58647 0.0 10091289
14:00+14wsw785440 0.0 10091791
17:00+14sw795676 0.0 10081770
20:00+13sw71061100 0.1 10091116
28 september, wed
wed2823:00+13sw6105999 0.0 10081103
02:00+11sw71279100 0.8 1006853
05:00+10wsw71091100 2.8 1004541
08:00+11sw81592100 8.8 1003753
11:00+13sw101586100 4.4 10021249
14:00+13sw91387100 6.3 1002939
17:00+13ssw91287100 4.6 1001982
20:00+13sw6986100 9.4 1002809
29 september, thu
thu2923:00+10w1289100 6.3 1005225
02:00+11wsw2485100 10.6 1004430
05:00+10w3585100 1.2 1004332
08:00+11wsw3482100 1.9 1004534
11:00+11wsw5484100 1.6 1006749
14:00+10wsw2286100 3.3 1007351
17:00+11ssw2278100 0.5 1007614
20:00+10nnw1180100 0.6 1009362